User: anonymous   Login
Location: Unspecified
(0.0000°N, 0.0000°E)
Time: 12:37:59
(UTC+00:00)
Language:

SRMSAT - Orbit

View from above orbital plane
View from above orbital plane
View from above satellite
View from above satellite

Ground track
Ground track

The orbit data is extracted from the following two-line orbital elements,

1 37841U 11058D   18115.18250817  .00000300  00000-0  19475-4 0  9999
2 37841  19.9729  46.7657 0011699 267.8828 232.6748 14.10604089337383
Epoch (UTC): 25 April 2018 04:22:48
Eccentricity: 0.0011699
inclination: 19.9729°
perigee height: 849 km
apogee height: 866 km
right ascension of ascending node: 46.7657°
argument of perigee: 267.8828°
revolutions per day: 14.10604089
mean anomaly at epoch: 232.6748°
orbit number at epoch: 33738

The dashed part of the orbit path shows where the satellite is in the earth's shadow,  

DLR